Weather Roundup
Issued by NWS

Home | Current Version | Previous Version | Graphics & Text | Print | Product List | Glossary Off
Versions: 1 2 3 4 5 6 7 8 9 10 11 12 13 14 15 16 17 18 19 20 21 22 23 24 25 26 27 28 29 30 31 32 33 34 35 36 37 38 39 40 41 42 43 44 45 46 47 48 49 50

000
NZUS93 KARX 290510
HRRWXR

CURRENT HOURLY OBSERVATIONS ACROSS
MUCH OF THE UPPER MISSISSIPPI VALLEY
NATIONAL WEATHER SERVICE LA CROSSE WI
1200 AM CDT FRI JUL 29 2016


...SOUTHEAST MINNESOTA...


CITY           SKY/WX    TMP DP  RH WIND       PRES   REMARKS
ROCHESTER      CLOUDY    64  60  87 NE9       30.04R
ROCHESTER/MAYO CLOUDY    65  59  81 NE8       30.04R
WINONA         CLOUDY    64  59  82 CALM      30.01F
AUSTIN         CLOUDY    64  57  77 NE7       30.02R
ALBERT LEA     CLOUDY    64  63  94 NE6       30.04R
DODGE CENTER   CLOUDY   N/A N/A N/A NE8       30.04R
PRESTON        CLOUDY    62  59  91 N9        30.02R
OWATONNA       CLOUDY    64  61  88 NE5       30.05R
FARIBAULT      CLOUDY    64  63  94 CALM      30.05R
$$

...ELSEWHERE IN MINNESOTA...


CITY           SKY/WX    TMP DP  RH WIND       PRES   REMARKS
MINNEAPOLIS    PTCLDY    68  57  68 NE8       30.05R
INTNL FALLS    CLEAR     54  52  93 CALM      30.09S
DULUTH         CLEAR     55  51  86 CALM      30.10S
RED WING       CLOUDY    66  61  82 NE3       30.03S
REDWOOD FALLS  CLEAR     64  57  78 N5        30.07S
MANKATO        MOCLDY    66  57  72 CALM      30.05R
WORTHINGTON    PTCLDY    64  60  87 N7        30.09R
FAIRMONT       CLOUDY    64  61  88 CALM      30.06R
$$

...SOUTHWEST WISCONSIN...


CITY           SKY/WX    TMP DP  RH WIND       PRES   REMARKS
LA CROSSE      CLOUDY    65  62  90 NW6       30.00S
PRAIRIE DU CHI CLOUDY    67  66  96 CALM      29.96R
BOSCOBEL       CLOUDY    71  65  81 NE6       29.96S
LONE ROCK      CLOUDY    70  63  78 NE9       29.97S
PLATTEVILLE    CLOUDY    69  68  97 E8        29.97R
FORT MC COY    CLOUDY    63  61  95 NE7       30.02S
CAMP DOUGLAS   CLOUDY    65  61  86 NE5       30.01S
MAUSTON-NEW LI CLOUDY    67  61  83 NE5       30.00S
VIROQUA        CLOUDY    65  65 100 NE3       30.00S
WIS DELLS      CLOUDY    66  59  77 NE8       29.99S
$$

...ELSEWHERE IN WISCONSIN...


CITY           SKY/WX    TMP DP  RH WIND       PRES   REMARKS
MILWAUKEE      LGT RAIN  68  63  84 N12       29.95S
MADISON        CLOUDY    68  59  73 NE8       29.97S
GREEN BAY      CLOUDY    64  57  78 N9        30.01S
EAU CLAIRE     CLOUDY    65  63  93 CALM      30.03S
BLACK RVR FLS  CLOUDY    64  64 100 NE6       30.02F
MEDFORD        CLOUDY    61  57  87 NE6       30.06S
WAUSAU         CLOUDY    64  58  80 NE3       30.04R
WIS RAPIDS     CLOUDY    66  60  81 NE6       30.04S
MARSHFIELD     CLOUDY    65  61  87 N3        30.04R
RICE LAKE      CLEAR     59  55  84 CALM      30.09R
$$

...NORTHEAST IOWA...


CITY           SKY/WX    TMP DP  RH WIND       PRES   REMARKS
WATERLOO       CLOUDY    67  62  84 N6        29.97R
DUBUQUE        CLOUDY    70  67  90 NE7       29.96R
DECORAH        CLOUDY    64  64 100 N8        29.98S FOG
MASON CITY     CLOUDY    62  60  93 N8        30.03S
CHARLES CITY   CLOUDY    66  64  94 N5        30.01R
OELWEIN        CLOUDY    66  64  94 N7        29.98S
$$

...ELSEWHERE IN IOWA...


CITY           SKY/WX    TMP DP  RH WIND       PRES   REMARKS
DES MOINES     PTCLDY    71  65  81 N8        29.99R
IOWA CITY      CLEAR     70  66  87 N10       29.95S
FORT DODGE     PTCLDY    64  63  94 N5        30.04S
MARSHALLTOWN   MOCLDY    63  63 100 NW6       29.99R
CEDAR RAPIDS   CLOUDY    68  67  96 N6        29.95S
$$

...NORTHERN ILLINOIS...


CITY           SKY/WX    TMP DP  RH WIND       PRES   REMARKS
CHICAGO-OHARE  MOCLDY    70  69  97 N6        29.91F
CHICAGO-MIDWAY PTCLDY    73  69  87 W3        29.91S
MOLINE         PTCLDY    72  66  81 NW5       29.92R
ROCKFORD       CLOUDY    70  65  84 NE7       29.95S
PEORIA         PTCLDY    73  69  87 CALM      29.92S
$$

NOTE: "FAIR" INDICATES FEW OR NO CLOUDS BELOW 12,000 FEET WITH NO
SIGNIFICANT WEATHER AND/OR OBSTRUCTIONS TO VISIBILITY. WIND
SPEEDS ARE IN MILES-PER-HOUR.




USA.gov is the U.S. government's official web portal to all federal, state and local government web resources and services.